Home > Weather > Centennial > Past weeks

Flag for USA Past Weather in Centennial, Colorado, USA — Yesterday and Last 2 Weeks

Now
65 °F

Scattered clouds.


Feels Like: 65 °F
Forecast: 42 / 67 °F
Wind: No wind

Location: Centennial Airport

Current Time: May 28, 2016 at 2:18:45 PM

Latest Report: May 28, 2016 at 1:53 PM


Visibility: 10 mi

Pressure: 29.94 "Hg (24.30 "Hg at 1781m altitude)

Humidity: 29%

Dew Point: 32 °F

Location of CentennialLocation

Past Weather in Centennial — Graph

°F

Centennial Temperature Yesterday

Maximum temperature yesterday: 56 °F (at 4:53 PM)
Minimum temperature yesterday: 44 °F (at 11:53 PM)
Average temperature yesterday: 49 °F

High & Low Weather Summary for the Past Weeks

 TemperatureHumidityPressure
High81 °F (May 21, 3:53 PM)96% (May 16, 9:53 AM)30.33 "Hg (May 16, 9:53 AM)
Low37 °F (May 17, 4:53 AM)10% (May 21, 5:53 PM)29.51 "Hg (May 22, 3:53 PM)
Average54 °F60%29.90 "Hg
* Reported May 13 12:53 PM — May 28 12:53 PM, Centennial, Weather by CustomWeather, © 2016

Note: Actual official high and low records may vary slightly from our data, if they occured in-between our weather recording intervals... More about our weather records

Advertising

Centennial Weather History for the Previous 24 Hours

Scroll right to see more
 ConditionsComfort  
Time TempWeatherWind HumidityBarometerVisibility
12:53 PM
Sat, May 28
63 °FBroken clouds.15 mph34%29.95 "Hg10 mi
11:53 AM66 °FPassing clouds.3 mph28%29.95 "Hg10 mi
10:53 AM63 °FPassing clouds.3 mph30%29.95 "Hg10 mi
9:53 AM60 °FPassing clouds.7 mph36%29.96 "Hg10 mi
8:53 AM57 °FPassing clouds.7 mph42%29.98 "Hg10 mi
7:53 AM54 °FPassing clouds.6 mph59%29.96 "Hg10 mi
6:53 AM48 °FPassing clouds.3 mph71%29.97 "Hg10 mi
5:53 AM41 °FPassing clouds.5 mph76%29.96 "Hg10 mi
4:53 AM40 °FPassing clouds.3 mph80%29.93 "Hg10 mi
3:53 AM42 °FPassing clouds.3 mph76%29.92 "Hg10 mi
2:53 AM43 °FPassing clouds.5 mph79%29.91 "Hg10 mi
1:53 AM43 °FPassing clouds.5 mph79%29.90 "Hg10 mi
12:53 AM46 °FPassing clouds.8 mph73%29.89 "Hg10 mi
11:53 PM
Fri, May 27
44 °FPassing clouds.9 mph76%29.93 "Hg10 mi
10:53 PM47 °FPassing clouds.6 mph74%29.93 "Hg10 mi
9:53 PM46 °FPassing clouds.6 mph77%29.94 "Hg10 mi
8:53 PM47 °FPassing clouds.7 mph77%29.90 "Hg10 mi
7:53 PM50 °FBroken clouds.10 mph68%29.89 "Hg10 mi
6:53 PM52 °FBroken clouds.13 mph64%29.88 "Hg10 mi
5:53 PM55 °FPartly sunny.10 mph57%29.85 "Hg10 mi
4:53 PM56 °FBroken clouds.10 mph53%29.83 "Hg10 mi
3:53 PM54 °FBroken clouds.14 mph57%29.83 "Hg10 mi
2:53 PM55 °FBroken clouds.15 mph57%29.84 "Hg10 mi
Weather by CustomWeather, © 2016

See weather overviewHow to use our weather pages